Home > Weather > Ratingen > Past weeks

Flag for Germany Weather for the Past 2 Weeks in Ratingen, North Rhine-Westphalia, Germany

Now
39 °F

Passing clouds.


Feels Like: 31 °F
Forecast: 34 / 43 °F
Wind: 14 mph from Southeast

Location: Duesseldorf

Current Time: Feb 12, 2016 at 10:53:20 AM

Latest Report: Feb 12, 2016 at 10:20 AM


Visibility: N/A

Pressure: 29.56 "Hg

Humidity: 75%

Dew point: 32 °F

Location of RatingenLocation

Historic Weather in Ratingen — Graph

°F

Ratingen Temperature Yesterday

Maximum temperature yesterday: 45 °F (at 12:50 PM)
Minimum temperature yesterday: 36 °F (at 1:50 AM)
Average temperature yesterday: 40 °F

High & Low Weather Summary for the Past Weeks

 TemperatureHumidityPressure
High54 °F (Jan 31, 11:50 PM)100% (Jan 31, 6:20 PM)30.33 "Hg (Jan 31, 6:20 PM)
Low36 °F (Jan 28, 10:50 PM)57% (Jan 28, 2:50 PM)28.77 "Hg (Feb 9, 4:20 PM)
Average45 °F83%29.82 "Hg
* Reported Jan 28 9:20 AM — Feb 12 9:20 AM, Ratingen, Weather by CustomWeather, © 2016

Note: Actual official high and low records may vary slightly from our data, if they occured in-between our weather recording intervals... More about our weather records

Advertising

Ratingen Weather History for the Previous 24 Hours

 ConditionsComfort  
Time TempWeatherWind HumidityBarometerVisibility
9:20 AM
Fri, Feb 12
37 °FPartly sunny.15 mph81%29.56 "HgN/A
8:50 AM37 °FPartly sunny.13 mph81%29.59 "HgN/A
8:20 AM39 °FPartly sunny.10 mph81%29.59 "HgN/A
7:50 AM37 °FPartly cloudy.10 mph93%29.59 "HgN/A
7:20 AM39 °FPassing clouds.8 mph87%29.59 "HgN/A
6:20 AM39 °FOvercast.8 mph87%29.59 "HgN/A
5:50 AM39 °FPassing clouds.9 mph87%29.62 "HgN/A
5:20 AM39 °FSprinkles. Passing clouds.10 mph87%29.62 "HgN/A
4:50 AM39 °FSprinkles. Passing clouds.9 mph87%29.62 "HgN/A
4:20 AM39 °FPassing clouds.8 mph87%29.62 "HgN/A
3:50 AM39 °FSprinkles. Passing clouds.5 mph87%29.62 "HgN/A
3:20 AM39 °FSprinkles. Passing clouds.5 mph87%29.65 "HgN/A
2:50 AM39 °FPassing clouds.8 mph87%29.65 "HgN/A
2:20 AM39 °FPartly cloudy.7 mph87%29.65 "HgN/A
1:50 AM39 °FPartly cloudy.7 mph87%29.65 "HgN/A
1:20 AM39 °FPassing clouds.8 mph87%29.65 "HgN/A
12:50 AM39 °FPassing clouds.6 mph87%29.65 "HgN/A
12:20 AM39 °FPassing clouds.6 mph87%29.68 "HgN/A
11:50 PM
Thu, Feb 11
37 °FPassing clouds.5 mph93%29.68 "HgN/A
10:50 PM36 °FClear.6 mph93%29.68 "Hg10 mi
10:20 PM36 °FClear.8 mph93%29.68 "Hg10 mi
9:50 PM36 °FClear.9 mph93%29.68 "Hg10 mi
9:20 PM37 °FPassing clouds.8 mph87%29.68 "HgN/A
8:50 PM37 °FClear.8 mph87%29.68 "Hg10 mi
8:20 PM37 °FClear.9 mph87%29.68 "Hg10 mi
7:50 PM39 °FClear.8 mph81%29.68 "Hg10 mi
7:20 PM39 °FClear.10 mph81%29.68 "Hg10 mi
6:50 PM39 °FPassing clouds.8 mph81%29.68 "HgN/A
6:20 PM39 °FPassing clouds.8 mph81%29.68 "HgN/A
5:50 PM39 °FPassing clouds.7 mph81%29.68 "HgN/A
5:20 PM43 °FPartly sunny.6 mph71%29.68 "HgN/A
4:50 PM45 °FPartly sunny.5 mph66%29.65 "HgN/A
4:20 PM45 °FBroken clouds.7 mph71%29.65 "HgN/A
3:50 PM45 °FBroken clouds.10 mph71%29.65 "HgN/A
3:20 PM45 °FBroken clouds.13 mph66%29.65 "HgN/A
2:50 PM45 °FScattered clouds.8 mph71%29.65 "HgN/A
2:20 PM45 °FScattered clouds.12 mph66%29.65 "HgN/A
1:50 PM45 °FScattered clouds.14 mph66%29.65 "HgN/A
1:20 PM45 °FPartly sunny.13 mph71%29.68 "HgN/A
12:50 PM45 °FPartly sunny.13 mph71%29.68 "HgN/A
12:20 PM43 °FBroken clouds.13 mph76%29.68 "HgN/A
11:50 AM43 °FBroken clouds.13 mph81%29.68 "HgN/A
11:20 AM41 °FPartly sunny.13 mph87%29.68 "Hg6 mi
10:50 AM41 °FPartly sunny.10 mph87%29.68 "Hg6 mi
10:20 AM39 °FPartly sunny.13 mph93%29.68 "Hg6 mi
Weather by CustomWeather, © 2016

See weather overviewHow to use our weather pages